Terminal Aerodrome Forecast
Issued by NWS Binghamton, NY

Home | Current Version | Previous Version | Text Only | Print | Product List | Glossary On
Versions: 1 2 3 4 5 6 7 8 9 10 11 12 13 14 15 16
589
FTUS41 KBGM 080251 AAB
TAFSYR
TAF AMD
KSYR 080251Z 0803/0824 10007KT P6SM SCT100 BKN250
     FM081500 11008KT P6SM SCT100 BKN250=

USA.gov is the U.S. government's official web portal to all federal, state and local government web resources and services.